When you browse on this site, cookies collect data to enhance your experience and personalize the content and advertising you see.
Visit our Privacy Policy to learn more. By continuing to use the site, you agree to this use of cookies and data.
  • en France
  • Liste des pays
  • À 7 jours
  • Température de l'eau
  • Carte météo
  • Widgets météo
  • user-avatar
    Se connecter

    Météo par heure à Bulembu

    Ce jour, 27 Mai, Mercredi

    Heure Température Précipitation Vent Pression Humidité
    00:00 +8°C° 0 mm 1 m/s 652 mmHg 72%
    01:00 +7°C° 0 mm 1 m/s 651 mmHg 65%
    02:00 +5°C° 0 mm 2 m/s 651 mmHg 55%
    03:00 +4°C° 0 mm 2 m/s 651 mmHg 54%
    04:00 +3°C° 0 mm 2 m/s 651 mmHg 52%
    05:00 +2°C° 0 mm 2 m/s 651 mmHg 50%
    06:00 +3°C° 0 mm 2 m/s 652 mmHg 48%
    07:00 +3°C° 0 mm 2 m/s 652 mmHg 46%
    08:00 +4°C° 0 mm 2 m/s 653 mmHg 43%
    09:00 +7°C° 0 mm 2 m/s 654 mmHg 35%
    10:00 +12°C° 0 mm 1 m/s 655 mmHg 27%
    11:00 +15°C° 0 mm 1 m/s 656 mmHg 19%
    12:00 +16°C° 0 mm 1 m/s 655 mmHg 17%
    13:00 +18°C° 0 mm 1 m/s 655 mmHg 16%
    14:00 +19°C° 0 mm 1 m/s 655 mmHg 14%
    15:00 +16°C° 0 mm 1 m/s 654 mmHg 20%
    16:00 +13°C° 0 mm 1 m/s 654 mmHg 25%
    17:00 +11°C° 0 mm 1 m/s 654 mmHg 31%
    18:00 +9°C° 0 mm 1 m/s 654 mmHg 34%
    19:00 +8°C° 0 mm 1 m/s 654 mmHg 37%
    20:00 +5°C° 0 mm 0 m/s 654 mmHg 40%
    21:00 +5°C° 0 mm 0 m/s 654 mmHg 42%
    22:00 +4°C° 0 mm 0 m/s 654 mmHg 43%
    23:00 +4°C° 0 mm 0 m/s 654 mmHg 45%

    Demain, 28 Mai, Jeudi

    Heure Température Précipitation Vent Pression Humidité
    00:00 +5°C° 0 mm 1 m/s 654 mmHg 45%
    01:00 +4°C° 0 mm 1 m/s 654 mmHg 45%
    02:00 +4°C° 0 mm 1 m/s 654 mmHg 45%
    03:00 +4°C° 0 mm 1 m/s 654 mmHg 48%
    04:00 +3°C° 0 mm 1 m/s 654 mmHg 50%
    05:00 +3°C° 0 mm 1 m/s 654 mmHg 53%
    06:00 +4°C° 0 mm 1 m/s 654 mmHg 51%
    07:00 +6°C° 0 mm 1 m/s 655 mmHg 49%
    08:00 +7°C° 0 mm 1 m/s 655 mmHg 47%
    09:00 +10°C° 0 mm 1 m/s 656 mmHg 39%
    10:00 +13°C° 0 mm 2 m/s 656 mmHg 32%
    11:00 +16°C° 0 mm 2 m/s 657 mmHg 24%
    12:00 +17°C° 0 mm 2 m/s 656 mmHg 21%
    13:00 +19°C° 0 mm 2 m/s 656 mmHg 18%
    14:00 +20°C° 0 mm 2 m/s 655 mmHg 15%
    15:00 +18°C° 0 mm 2 m/s 655 mmHg 21%
    16:00 +16°C° 0 mm 2 m/s 654 mmHg 28%
    17:00 +14°C° 0 mm 2 m/s 653 mmHg 34%
    18:00 +12°C° 0 mm 2 m/s 653 mmHg 39%
    19:00 +10°C° 0 mm 2 m/s 653 mmHg 43%
    20:00 +8°C° 0 mm 2 m/s 652 mmHg 48%
    21:00 +8°C° 0 mm 2 m/s 653 mmHg 43%
    22:00 +7°C° 0 mm 2 m/s 653 mmHg 37%
    23:00 +7°C° 0 mm 2 m/s 653 mmHg 32%

    Après-demain, 29 Mai, Vendredi

    Heure Température Précipitation Vent Pression Humidité
    00:00 +7°C° 0 mm 2 m/s 652 mmHg 31%
    01:00 +6°C° 0 mm 2 m/s 652 mmHg 29%
    02:00 +6°C° 0 mm 2 m/s 651 mmHg 28%
    03:00 +6°C° 0 mm 2 m/s 651 mmHg 29%
    04:00 +6°C° 0 mm 2 m/s 651 mmHg 29%
    05:00 +6°C° 0 mm 2 m/s 651 mmHg 30%
    06:00 +7°C° 0 mm 2 m/s 652 mmHg 30%
    07:00 +8°C° 0 mm 2 m/s 652 mmHg 29%
    08:00 +9°C° 0 mm 2 m/s 653 mmHg 29%
    09:00 +14°C° 0 mm 2 m/s 654 mmHg 26%
    10:00 +17°C° 0 mm 2 m/s 655 mmHg 22%
    11:00 +21°C° 0 mm 2 m/s 656 mmHg 19%
    12:00 +23°C° 0 mm 2 m/s 655 mmHg 19%
    13:00 +23°C° 0 mm 2 m/s 655 mmHg 19%
    14:00 +24°C° 0 mm 2 m/s 655 mmHg 18%
    15:00 +21°C° 0 mm 2 m/s 655 mmHg 24%
    16:00 +18°C° 0 mm 2 m/s 654 mmHg 29%
    17:00 +15°C° 0 mm 1 m/s 654 mmHg 35%
    18:00 +14°C° 0 mm 1 m/s 654 mmHg 37%
    19:00 +13°C° 0 mm 1 m/s 654 mmHg 39%
    20:00 +11°C° 0 mm 1 m/s 655 mmHg 42%
    21:00 +11°C° 0 mm 1 m/s 655 mmHg 43%
    22:00 +10°C° 0 mm 1 m/s 656 mmHg 45%
    23:00 +10°C° 0 mm 1 m/s 656 mmHg 47%

    30 Mai, Samedi

    Heure Température Précipitation Vent Pression Humidité
    00:00 +9°C° 0 mm 1 m/s 656 mmHg 55%
    01:00 +9°C° 0 mm 1 m/s 656 mmHg 63%
    02:00 +8°C° 0 mm 1 m/s 656 mmHg 71%
    03:00 +8°C° 0 mm 1 m/s 656 mmHg 77%
    04:00 +8°C° 0 mm 1 m/s 656 mmHg 83%
    05:00 +8°C° 0 mm 1 m/s 656 mmHg 89%
    06:00 +9°C° 0 mm 1 m/s 657 mmHg 85%
    07:00 +9°C° 0 mm 0 m/s 658 mmHg 80%
    08:00 +10°C° 0 mm 0 m/s 658 mmHg 75%
    09:00 +13°C° 0 mm 1 m/s 659 mmHg 68%
    10:00 +15°C° 0 mm 1 m/s 659 mmHg 61%
    11:00 +18°C° 0 mm 1 m/s 660 mmHg 53%
    12:00 +19°C° 0 mm 1 m/s 660 mmHg 51%
    13:00 +18°C° 0 mm 2 m/s 659 mmHg 50%
    14:00 +18°C° 0 mm 2 m/s 658 mmHg 48%
    15:00 +17°C° 0 mm 2 m/s 658 mmHg 56%
    16:00 +15°C° 0 mm 2 m/s 658 mmHg 64%
    17:00 +14°C° 0 mm 1 m/s 658 mmHg 72%
    18:00 +12°C° 0 mm 1 m/s 658 mmHg 79%
    19:00 +11°C° 0 mm 1 m/s 658 mmHg 85%
    20:00 +9°C° 0 mm 0 m/s 658 mmHg 92%
    21:00 +9°C° 0 mm 0 m/s 658 mmHg 92%
    22:00 +10°C° 0 mm 1 m/s 658 mmHg 93%
    23:00 +10°C° 0 mm 1 m/s 658 mmHg 93%

    31 Mai, Dimanche

    Heure Température Précipitation Vent Pression Humidité
    00:00 +9°C° 0 mm 1 m/s 658 mmHg 94%
    01:00 +9°C° 0 mm 1 m/s 658 mmHg 94%
    02:00 +8°C° 0 mm 1 m/s 657 mmHg 95%
    03:00 +8°C° 0 mm 1 m/s 657 mmHg 95%
    04:00 +8°C° 0 mm 1 m/s 657 mmHg 94%
    05:00 +8°C° 0 mm 1 m/s 657 mmHg 94%
    06:00 +9°C° 0 mm 1 m/s 658 mmHg 87%
    07:00 +10°C° 0 mm 1 m/s 658 mmHg 80%
    08:00 +11°C° 0 mm 1 m/s 659 mmHg 73%
    09:00 +14°C° 0 mm 1 m/s 659 mmHg 60%
    10:00 +19°C° 0 mm 1 m/s 660 mmHg 46%
    11:00 +22°C° 0 mm 1 m/s 661 mmHg 33%
    12:00 +23°C° 0 mm 1 m/s 661 mmHg 31%
    13:00 +23°C° 0 mm 1 m/s 660 mmHg 30%
    14:00 +24°C° 0 mm 2 m/s 660 mmHg 28%
    15:00 +21°C° 0 mm 2 m/s 659 mmHg 37%
    16:00 +19°C° 0 mm 2 m/s 659 mmHg 45%
    17:00 +16°C° 0 mm 1 m/s 658 mmHg 53%
    18:00 +15°C° 0 mm 1 m/s 658 mmHg 61%
    19:00 +13°C° 0 mm 1 m/s 658 mmHg 69%
    20:00 +12°C° 0 mm 1 m/s 658 mmHg 77%
    21:00 +11°C° 0 mm 1 m/s 658 mmHg 79%
    22:00 +11°C° 0 mm 1 m/s 658 mmHg 81%
    23:00 +11°C° 0 mm 1 m/s 658 mmHg 82%

    1 Juin, Lundi

    Heure Température Précipitation Vent Pression Humidité
    00:00 +10°C° 0 mm 1 m/s 658 mmHg 84%
    01:00 +10°C° 0 mm 1 m/s 658 mmHg 85%
    02:00 +10°C° 0 mm 1 m/s 658 mmHg 86%
    03:00 +9°C° 0 mm 1 m/s 657 mmHg 85%
    04:00 +9°C° 0 mm 1 m/s 657 mmHg 83%
    05:00 +9°C° 0 mm 1 m/s 657 mmHg 82%
    06:00 +10°C° 0 mm 1 m/s 658 mmHg 73%
    07:00 +11°C° 0 mm 1 m/s 658 mmHg 64%
    08:00 +12°C° 0 mm 1 m/s 659 mmHg 55%
    09:00 +16°C° 0 mm 1 m/s 660 mmHg 46%
    10:00 +20°C° 0 mm 1 m/s 660 mmHg 36%
    11:00 +24°C° 0 mm 1 m/s 661 mmHg 27%
    12:00 +24°C° 0 mm 1 m/s 660 mmHg 26%
    13:00 +25°C° 0 mm 1 m/s 660 mmHg 26%
    14:00 +25°C° 0 mm 2 m/s 659 mmHg 26%
    15:00 +23°C° 0 mm 2 m/s 659 mmHg 34%
    16:00 +20°C° 0 mm 1 m/s 658 mmHg 42%
    17:00 +18°C° 0 mm 1 m/s 657 mmHg 51%
    18:00 +15°C° 0 mm 1 m/s 657 mmHg 57%
    19:00 +14°C° 0 mm 1 m/s 658 mmHg 63%
    20:00 +11°C° 0 mm 0 m/s 658 mmHg 68%
    21:00 +11°C° 0 mm 0 m/s 657 mmHg 70%
    22:00 +12°C° 0 mm 1 m/s 657 mmHg 72%
    23:00 +11°C° 0 mm 1 m/s 657 mmHg 74%
    Voir plus